Location: Bouchavesnes-Bergen
(49.9859°N, 2.9203°E)
Time: 23:57:52
(UTC+00:00)

ALOS - Pass Details

Date: 09 March 2021
Orbit: 683 x 684 km, 97.9° (Epoch: 13 April)

Event Time Altitude Azimuth Distance (km) Brightness Sun altitude
Rises 05:33:13 0° 4° (N) 3,063 5.7 -7.5°
Reaches altitude 10° 05:35:51 10° 350° (N) 2,142 4.7 -7.1°
Maximum altitude 05:39:28 23° 299° (WNW) 1,458 3.5 -6.5°
Drops below altitude 10° 05:43:05 10° 248° (WSW) 2,130 4.2 -5.9°
Enters shadow 05:45:35 - 234° (SW) 2,998 5.1 -5.5°
